Jackpot

Texas Poker Multi Jackpot System

Kini Telah hadir Jackpot SUPER ROYAL FLUSH

Kini Telah hadir Jackpot 2000 (khusus table VIP keatas).

Ikutilah global jackpot yang tersedia di system kami, dengan system jackpot terbaru dan pertama di indonesia, anda dapat membeli jackpot dengan harga 100 rupiah saja dan menangkan hadiahnya hingga puluhan juta rupiah.

Jackpot bukanlah suatu keharusan untuk dibeli, namun kami memberikan suatu fitur tambahan untuk member tercinta dari www.poker-aon.com.

Terdapat tiga pilihan harga jackpot yang bisa anda beli yaitu :100,500,1000 dan 2000(khusus table VIP Keatas) rupiah.

Hadiah dari Multi jackpot system www.poker-aon.com

  1. full house x 10 harga jackpot yang anda beli.
      (contoh:anda membeli 1000 maka:1000 X10 = 10.000)
  2. four of kind x 250 harga jackpot yang anda beli
      (contoh:anda membeli 1000 maka:1000 X250 = 250.000)
  3. Straight flush x 1200
      (contoh:anda membeli 1000 maka:1000 X1200 = 1.200.000)
  4. Royal flush x 10000 harga jackpot yang anda beli
      (contoh:anda membeli 1000 maka:1000 X10000 = 10.000.000)
  5. SUPER ROYAL FLUSH x 30000 harga jackpot yang anda beli
      (contoh:anda membeli 1000 maka:1000 X30000 = 30.000.000)

Kondisi kartu

  1. full house adalah kondisi kartu dimana kartu anda dan kartu tengah dengan total 7 kartu bisa mendapatkan nilai 5 kartu dengan kombinasi 1 tris(three of kind) dan 1 pair, contoh 3 kartu 10 dan 2 kartu 5
  2. Four of kind adalah kondisi kartu dimana kartu anda dan kartu tengah dengan total 7 kartu bisa mendapatkan nilai 5 kartu dengan kombinasi 4 kartu yang sama jumlah dan 1 kartu apapun juga contoh anda mendapatkan 4 buah kartu angka 3 dan 1 kartu apapun.
  3. Staright flush adalah kondisi kartu dimana kartu anda dan kartu tengah dengan total 7 kartu bisa mendapatkan nilai 5 kartu dengan kombinasi seri / staright dengan kembang yang sama contoh : urutan kartu dari angka 5, 6, 7, 8 , 9 10 dengan kembang yg sama misalnya as hati
  4. Royal flush adalah kondisi kartu dimana kartu anda dan kartu tengah dengan total 7 kartu bisa mendapatkan nilai 5 kartu dengan kombinasi seri / staright dengan kembang yang sama tetapi kartu tersebut haruslah dimulai dari 10. contoh 10, Queen, Jack, King dan aces dengan kembang yang sama
  5. Super Royal flush adalah kondisi kartu dimana Kedua kartu anda digabung dengan 3 kartu pertama meja haruslah royal flush. contoh kartu anda 10,Queen kembang sama dan 3 kartu pertama meja adalah Jack, King dan aces dengan kembang yang sama

Demikian adalah penjelasan dari Multi Jackpot www.poker-aon.com terima kasih dan selamat bermain salam hoki dari kami

Texas Poker Jackpot Winner

TOP SUPER ROYAL FLUSH
No.TanggalNamaPriceWin
121/09 14:11ROYALJOZZSuper Royal flush60,000,000
221/09 13:43BA_ATIYOSuper Royal flush6,000,000
321/09 12:23B8EKCBJIYMSuper Royal flush3,000,000
421/09 08:32TUPO25Super Royal flush3,000,000
521/09 07:21SLOME898Super Royal flush30,000,000
TOP ROYAL FLUSH
No.TanggalNamaPriceWin
122/09 00:44TADAH3Royal flush20,000,000
222/09 00:38AALLIINN88Royal flush1,000,000
322/09 00:27F2000Royal flush5,000,000
422/09 00:25A0B1B848Royal flush2,000,000
522/09 00:23WOLFRAMRoyal flush5,000,000
TOP STRAIGHT FLUSH
No.TanggalNamaPriceWin
122/09 00:45SE7EN77Straight Flush120,000
222/09 00:42CHELSEA41Straight Flush600,000
322/09 00:42YANTEXXStraight Flush600,000
422/09 00:41KIK303Straight Flush600,000
522/09 00:41S_KOStraight Flush240,000
LATEST JACKPOT
No.TanggalNamaPriceWin
122/09 00:47IGULLLLFull House2,000
222/09 00:47SOLAZFull House1,000
322/09 00:47HANSON7Full House1,000
422/09 00:47LUCKY2105Full House5,000
522/09 00:47MARCELHDFour Of A Kind125,000
622/09 00:47IRVI120318Full House5,000
722/09 00:47ABIRA88Full House10,000
822/09 00:46CIBERO77Full House5,000
922/09 00:46BINA577Full House2,000
1022/09 00:46ASSBAK999Full House5,000
1122/09 00:46TIKI107Full House5,000
1222/09 00:46SOFA_168Full House20,000
1322/09 00:46JPFAIR01Full House5,000
1422/09 00:46D558F8B3Full House10,000
1522/09 00:46ABELLABELLFull House2,000
1622/09 00:46HUTAPEA04Full House2,000
1722/09 00:46GANTZ5758Full House2,000
1822/09 00:46F9776CC5Full House2,000
1922/09 00:46ALGANAX888Full House5,000
2022/09 00:46ACIK97Full House10,000
2122/09 00:46JOOSGANDOSFull House2,000
2222/09 00:46NTEKKRINAFull House1,000
2322/09 00:46REF6VMOS7WFull House20,000
2422/09 00:46MIKKOKOFull House10,000
2522/09 00:46AD0EBF7FFull House5,000
2622/09 00:46IDPRO9NAGAFull House5,000
2722/09 00:46KXVMGS42A8Full House20,000
2822/09 00:46BRENGOS133Full House2,000
2922/09 00:46M3D1U2Full House2,000
3022/09 00:46MURELFull House2,000
3122/09 00:46F034ED3AFull House5,000
3222/09 00:46ALIG2008Full House5,000
3322/09 00:46C4A0D13EFull House1,000
3422/09 00:46DED36857Full House10,000
3522/09 00:46SOMPENG9Full House5,000
3622/09 00:46BACOK777Full House2,000
3722/09 00:46KOCU111Full House500
3822/09 00:46ANGFANGFull House2,000
3922/09 00:46BGANGG4Full House1,000
4022/09 00:46DANGLAK10Full House5,000
4122/09 00:46RUDZ999Full House5,000
4222/09 00:46DEWA54Full House2,000
4322/09 00:46DUDUBUBU88Full House1,000
4422/09 00:46FHNDIFull House10,000
4522/09 00:46SAKSEK05Full House5,000
4622/09 00:46AKI4NK67Full House2,000
4722/09 00:46RIJKIN4Full House2,000
4822/09 00:46KARTIKANOVFull House1,000
4922/09 00:46HAS212Full House2,000
5022/09 00:46ULIL97Full House2,000

Domino Multi Jackpot System

Ikutilah global jackpot yang tersedia di system kami, dengan system jackpot terbaru dan pertama di indonesia, anda dapat membeli jackpot dengan harga 100 rupiah saja dan menangkan hadiahnya hingga puluhan juta rupiah.

Jackpot bukanlah suatu keharusan untuk dibeli, namun kami memberikan suatu fitur tambahan untuk member tercinta dari www.poker-aon.com.

Terdapat tiga pilihan harga jackpot yang bisa anda beli yaitu :100,500 dan 1000 rupiah.

Hadiah dari Multi jackpot system www.poker-aon.com

  1. Murni Kecil x 50 harga jackpot yang anda beli.
      (contoh:anda membeli 1000 maka:1000 X 50 = 50.000)
  2. Murni Besar x 50 harga jackpot yang anda beli
      (contoh:anda membeli 1000 maka:1000 X 50 = 50.000)
  3. BALAK x 100 harga jackpot yang anda beli
      (contoh:anda membeli 1000 maka:1000 X 100 = 100.000)
  4. ENAM DEWA x 6666 harga jackpot yang anda beli
      (contoh:anda membeli 1000 maka:1000 X 6666 = 6.666.000)

Demikian adalah penjelasan dari Multi Jackpot www.poker-aon.com terima kasih dan selamat bermain salam hoki dari kami

Domino Jackpot Winner

TOP ENAM DEWA
No.TanggalNamaPriceWin
122/09 00:44AMSEO99murni enam3,333,000
222/09 00:43DYCK22murni enam6,666,000
321/09 23:35TEMPE444murni enam666,600
421/09 21:47MORBAG029murni enam3,333,000
521/09 21:27STW79murni enam3,333,000
TOP BALAK
No.TanggalNamaPriceWin
122/09 00:43G4RONG89balak50,000
222/09 00:39RAVA303balak50,000
322/09 00:39J1010balak100,000
422/09 00:37TONO757balak10,000
522/09 00:36C84SHBOY24699balak100,000
LATEST JACKPOT
No.TanggalNamaPriceWin
122/09 00:46BEGUG20murni kecil50,000
222/09 00:46ANTOK55murni kecil50,000
322/09 00:45HAER333murni besar50,000
422/09 00:45MGELIK9murni besar50,000
522/09 00:44AMSEO99murni enam3,333,000
622/09 00:44ACIL66murni kecil50,000
722/09 00:44JANUARY20murni besar50,000
822/09 00:44RHRH17murni kecil5,000
922/09 00:43G4RONG89balak50,000
1022/09 00:43DYCK22murni enam6,666,000
1122/09 00:43ESHAALmurni besar25,000
1222/09 00:42KEROCO2424murni kecil5,000
1322/09 00:42SCU4KA9ZB6murni besar5,000
1422/09 00:42J1010murni kecil50,000
1522/09 00:41UDUZ22murni kecil50,000
1622/09 00:41FADERSmurni kecil50,000
1722/09 00:41W1732IEmurni besar5,000
1822/09 00:41APASTU0320lucky992,500
1922/09 00:40GRANDONG96murni kecil50,000
2022/09 00:39RAVA303balak50,000
2122/09 00:39J1010balak100,000
2222/09 00:39SEVENGODmurni besar50,000
2322/09 00:38UBD05murni besar50,000
2422/09 00:37TONO757balak10,000
2522/09 00:37QQRULIYAHmurni besar25,000
2622/09 00:37JALIMINSBRmurni kecil5,000
2722/09 00:36RONGGA69lucky9910,000
2822/09 00:36OKAJAYAmurni besar5,000
2922/09 00:36SIDE72lucky9950,000
3022/09 00:36UDUZ22murni besar50,000
3122/09 00:36C84SHBOY24699balak100,000
3222/09 00:35HAZEL01murni kecil25,000
3322/09 00:35APINK34murni kecil5,000
3422/09 00:34ANGKE888murni besar50,000
3522/09 00:34ANTOK55murni besar50,000
3622/09 00:33ROOM28murni besar50,000
3722/09 00:32LALALILI88murni besar50,000
3822/09 00:31JEKP0T789balak50,000
3922/09 00:31CIHUUII005lucky992,500
4022/09 00:31VIOLET72balak50,000
4122/09 00:31KOCEXKACEKmurni besar50,000
4222/09 00:30SNW4XPMWZDmurni besar50,000
4322/09 00:30JPWINNER87murni besar50,000
4422/09 00:30GEGER057murni besar50,000
4522/09 00:30GANDA40murni besar50,000
4622/09 00:30HAM626murni kecil50,000
4722/09 00:29KECUBUNG01murni kecil50,000
4822/09 00:29FRANS48murni besar50,000
4922/09 00:28OKAJAYAmurni besar5,000
5022/09 00:28AYAHOLOTmurni besar50,000

Ceme Multi Jackpot System

Jackpot dilihat dari gabungan kartu pemain dengan kartu bandar. Bandar harus membeli jackpot sebanyak jumlah player yang sedang duduk. Sebagai contoh bila terdapat 3 pemain duduk bermain, dan bandar memutuskan untuk membeli jackpot Rp 1.000, maka pada periode tersebut bandar akan membeli jackpot sebanyak 3xRp1.000 = Rp3.000.

Jackpot bukanlah suatu keharusan untuk dibeli, namun kami memberikan suatu fitur tambahan untuk member tercinta dari www.poker-aon.com.

Terdapat tiga pilihan harga jackpot yang bisa anda beli yaitu :100,500 dan 1000 rupiah.

Hadiah dari Multi jackpot system www.poker-aon.com

  1. Murni Kecil x 50 harga jackpot yang anda beli.
      (contoh:anda membeli 1000 maka:1000 X 50 = 50.000)
  2. Murni Besar x 50 harga jackpot yang anda beli
      (contoh:anda membeli 1000 maka:1000 X 50 = 50.000)
  3. BALAK x 200 harga jackpot yang anda beli
      (contoh:anda membeli 1000 maka:1000 X 200 = 200.000)
  4. ENAM DEWA x 6666 harga jackpot yang anda beli
      (contoh:anda membeli 1000 maka:1000 X 6666 = 6.666.000)

Demikian adalah penjelasan dari Multi Jackpot www.poker-aon.com terima kasih dan selamat bermain salam hoki dari kami

Ceme Jackpot Winner

TOP ENAM DEWA
No.TanggalNamaPriceWin
122/09 00:41KINGQ9murni enam6,666,000
222/09 00:33BAYCODETmurni enam6,666,000
322/09 00:33ANARKI88murni enam6,666,000
422/09 00:25MYLANOmurni enam6,666,000
522/09 00:25MLD1123murni enam6,666,000
TOP BALAK
No.TanggalNamaPriceWin
122/09 00:46MOHSEHbalak100,000
222/09 00:46A53IZ23balak200,000
322/09 00:46EKOO96balak100,000
422/09 00:46GOOBELTTbalak200,000
522/09 00:46INDARbalak20,000
LATEST JACKPOT
No.TanggalNamaPriceWin
122/09 00:46SIS7878murni kecil50,000
222/09 00:46MOHSEHbalak100,000
322/09 00:46A53IZ23balak200,000
422/09 00:46EKOO96balak100,000
522/09 00:46RUKANI12murni kecil50,000
622/09 00:46R_DEVILSmurni kecil25,000
722/09 00:46RUKANI12murni kecil50,000
822/09 00:46RUMI502murni kecil25,000
922/09 00:46TOMAT12murni besar50,000
1022/09 00:46MLEKEXmurni besar50,000
1122/09 00:46GOOBELTTbalak200,000
1222/09 00:46PAPAMUDA09murni besar25,000
1322/09 00:46EDI99099_murni kecil50,000
1422/09 00:46EDI99099_murni kecil50,000
1522/09 00:46JAELAN77murni kecil50,000
1622/09 00:46MBAHBEK666murni kecil50,000
1722/09 00:46GAS_REMmurni kecil5,000
1822/09 00:46BIJI_PELEEmurni kecil50,000
1922/09 00:46INDARbalak20,000
2022/09 00:46YUXER88murni besar5,000
2122/09 00:46GOOOOOLLLmurni besar25,000
2222/09 00:46ALVERO89balak200,000
2322/09 00:46YUDHANOF80balak100,000
2422/09 00:46DANI4murni besar5,000
2522/09 00:46KARNAN1234murni kecil25,000
2622/09 00:46DHOROmurni kecil25,000
2722/09 00:46MASSINYOmurni besar50,000
2822/09 00:46RD3SOMQW3Smurni kecil50,000
2922/09 00:46PINTUSINGAbalak200,000
3022/09 00:45INACANT1Kmurni kecil5,000
3122/09 00:45SITISAN09murni kecil50,000
3222/09 00:45DPTT1210SSmurni kecil50,000
3322/09 00:45SITISAN09murni kecil50,000
3422/09 00:45ALBYRAYA17murni kecil50,000
3522/09 00:45T4KOT90murni kecil50,000
3622/09 00:45SUGENG10murni kecil50,000
3722/09 00:45MAKImurni besar25,000
3822/09 00:45TITITE69murni besar50,000
3922/09 00:45IONZCGA8AZbalak200,000
4022/09 00:45IBI766murni kecil50,000
4122/09 00:45GENK69murni kecil50,000
4222/09 00:45WGHKLGN9murni besar25,000
4322/09 00:45JAUDmurni besar5,000
4422/09 00:45WGHKLGN9murni besar25,000
4522/09 00:45SUN666murni besar25,000
4622/09 00:45PPA_99murni besar25,000
4722/09 00:45BEWEYEbalak20,000
4822/09 00:44KKTL99murni kecil5,000
4922/09 00:44SANUR123murni kecil50,000
5022/09 00:44TOMJERRY87murni kecil50,000